| time (UTC) | temp F | wind direction | speed MPH | gust MPH | rain 1hr in | rain 24hr in | rain mn in | humidity % | barometer mb |
| 20260504100527 | 45 | 0.0 | 0.0 | 0.00 | 0.00 | 0.00 | 77 | ||
| 20260504081521 | 50 | 0.0 | 0.0 | 0.00 | 0.00 | 0.00 | 62 | ||
| 20260504080528 | 50 | 0.0 | 0.0 | 0.00 | 0.00 | 0.00 | 61 | ||
| 20260504050527 | 52 | 0.0 | 0.0 | 0.00 | 0.00 | 0.00 | 59 | ||
| 20260504045533 | 52 | 0.0 | 0.0 | 0.00 | 0.00 | 0.00 | 55 | ||
| 20260504044521 | 53 | 0.0 | 0.0 | 0.00 | 0.00 | 0.00 | 55 | ||
| 20260504043527 | 55 | 0.0 | 0.0 | 0.00 | 0.00 | 0.00 | 53 | ||
| 20260504042533 | 56 | 0.0 | 0.0 | 0.00 | 0.00 | 0.00 | 48 | ||
| 20260504041541 | 57 | 0.0 | 0.0 | 0.00 | 0.00 | 0.00 | 45 | ||
| 20260504040527 | 57 | 0.0 | 2.0 | 0.00 | 0.00 | 0.00 | 44 | ||
| 20260504035533 | 56 | 248 | 1.0 | 3.0 | 0.00 | 0.00 | 0.00 | 45 | |
| 20260504034522 | 56 | 248 | 0.0 | 2.0 | 0.00 | 0.00 | 0.00 | 46 | |
| 20260504033546 | 55 | 0.0 | 0.0 | 0.00 | 0.00 | 0.00 | 47 | ||
| 20260504032532 | 56 | 184 | 1.0 | 2.0 | 0.00 | 0.00 | 0.00 | 47 | |
| 20260504031521 | 55 | 248 | 0.0 | 2.0 | 0.00 | 0.00 | 0.00 | 53 | |
| 20260504030527 | 55 | 0.0 | 0.0 | 0.00 | 0.00 | 0.00 | 51 | ||
| 20260504025533 | 55 | 0.0 | 0.0 | 0.00 | 0.00 | 0.00 | 51 | ||
| 20260504024521 | 56 | 0.0 | 0.0 | 0.00 | 0.00 | 0.00 | 50 | ||
| 20260504023527 | 56 | 0.0 | 0.0 | 0.00 | 0.00 | 0.00 | 50 | ||
| 20260504022551 | 57 | 0.0 | 0.0 | 0.00 | 0.00 | 0.00 | 48 | ||
| 20260504021521 | 57 | 0.0 | 0.0 | 0.00 | 0.00 | 0.00 | 47 | ||
| 20260504020526 | 58 | 0.0 | 0.0 | 0.00 | 0.00 | 0.00 | 44 | ||
| 20260504015532 | 59 | 0.0 | 0.0 | 0.00 | 0.00 | 0.00 | 42 | ||
| 20260504014521 | 61 | 0.0 | 0.0 | 0.00 | 0.00 | 0.00 | 41 | ||
| 20260504013527 | 62 | 0.0 | 0.0 | 0.00 | 0.00 | 0.00 | 39 | ||
| 20260504012533 | 64 | 0.0 | 0.0 | 0.00 | 0.00 | 0.00 | 37 | ||
| 20260504011520 | 66 | 0.0 | 0.0 | 0.00 | 0.00 | 0.00 | 34 | ||
| 20260504010527 | 69 | 0.0 | 0.0 | 0.00 | 0.00 | 0.00 | 31 | ||
| 20260504005532 | 72 | 0.0 | 0.0 | 0.00 | 0.00 | 0.00 | 28 | ||
| 20260504004521 | 75 | 0.0 | 0.0 | 0.00 | 0.00 | 0.00 | 26 | ||
| 20260504003547 | 77 | 0.0 | 0.0 | 0.00 | 0.00 | 0.00 | 24 | ||
| 20260504002533 | 78 | 243 | 1.0 | 3.0 | 0.00 | 0.00 | 0.00 | 22 | |
| 20260504001539 | 80 | 274 | 2.0 | 3.0 | 0.00 | 0.00 | 0.00 | 21 | |
| 20260504000527 | 80 | 3 | 2.0 | 5.0 | 0.00 | 0.00 | 0.00 | 21 | |
| 20260503235533 | 81 | 267 | 2.0 | 5.0 | 0.00 | 0.00 | 0.00 | 20 | |
| 20260503234520 | 82 | 318 | 2.0 | 4.0 | 0.00 | 0.00 | 0.00 | 21 | |
| 20260503233529 | 82 | 293 | 3.0 | 5.0 | 0.00 | 0.00 | 0.00 | 20 | |
| 20260503232533 | 83 | 266 | 1.0 | 4.0 | 0.00 | 0.00 | 0.00 | 20 | |
| 20260503231521 | 80 | 311 | 3.0 | 8.0 | 0.00 | 0.00 | 0.00 | 21 | |
| 20260503230527 | 78 | 279 | 3.0 | 4.0 | 0.00 | 0.00 | 0.00 | 22 | |
| 20260503225535 | 79 | 265 | 4.0 | 7.0 | 0.00 | 0.00 | 0.00 | 21 | |
| 20260503224521 | 79 | 4 | 4.0 | 7.0 | 0.00 | 0.00 | 0.00 | 21 | |
| 20260503223527 | 80 | 227 | 2.0 | 5.0 | 0.00 | 0.00 | 0.00 | 22 | |
| 20260503222532 | 79 | 354 | 3.0 | 5.0 | 0.00 | 0.00 | 0.00 | 22 | |
| 20260503221541 | 80 | 235 | 3.0 | 7.0 | 0.00 | 0.00 | 0.00 | 22 | |
| 20260503220527 | 80 | 300 | 3.0 | 7.0 | 0.00 | 0.00 | 0.00 | 21 | |
| 20260503215553 | 80 | 317 | 4.0 | 9.0 | 0.00 | 0.00 | 0.00 | 22 | |
| 20260503214520 | 79 | 314 | 3.0 | 6.0 | 0.00 | 0.00 | 0.00 | 22 | |
| 20260503213546 | 80 | 282 | 4.0 | 6.0 | 0.00 | 0.00 | 0.00 | 22 | |
| 20260503212554 | 80 | 338 | 3.0 | 5.0 | 0.00 | 0.00 | 0.00 | 22 | |
| 20260503211520 | 80 | 3 | 4.0 | 7.0 | 0.00 | 0.00 | 0.00 | 22 | |
| 20260503210529 | 80 | 12 | 4.0 | 7.0 | 0.00 | 0.00 | 0.00 | 20 | |
| 20260503205532 | 80 | 336 | 4.0 | 8.0 | 0.00 | 0.00 | 0.00 | 23 | |
| 20260503204522 | 80 | 325 | 5.0 | 8.0 | 0.00 | 0.00 | 0.00 | 22 | |
| 20260503203526 | 80 | 254 | 5.0 | 8.0 | 0.00 | 0.00 | 0.00 | 22 | |
| 20260503202552 | 79 | 286 | 4.0 | 8.0 | 0.00 | 0.00 | 0.00 | 23 | |
| 20260503201520 | 80 | 303 | 5.0 | 8.0 | 0.00 | 0.00 | 0.00 | 23 | |
| 20260503200526 | 81 | 264 | 4.0 | 6.0 | 0.00 | 0.00 | 0.00 | 23 | |
| 20260503195531 | 80 | 291 | 4.0 | 9.0 | 0.00 | 0.00 | 0.00 | 23 | |
| 20260503194520 | 79 | 297 | 3.0 | 4.0 | 0.00 | 0.00 | 0.00 | 25 | |
| 20260503193525 | 80 | 283 | 4.0 | 8.0 | 0.00 | 0.00 | 0.00 | 24 | |
| 20260503192549 | 79 | 252 | 5.0 | 10.0 | 0.00 | 0.00 | 0.00 | 24 | |
| 20260503191520 | 78 | 270 | 5.0 | 7.0 | 0.00 | 0.00 | 0.00 | 27 | |
| 20260503190525 | 79 | 326 | 3.0 | 7.0 | 0.00 | 0.00 | 0.00 | 27 | |
| 20260503185531 | 79 | 298 | 5.0 | 10.0 | 0.00 | 0.00 | 0.00 | 26 | |
| 20260503184519 | 79 | 288 | 5.0 | 8.0 | 0.00 | 0.00 | 0.00 | 26 | |
| 20260503183524 | 78 | 288 | 4.0 | 8.0 | 0.00 | 0.00 | 0.00 | 27 | |
| 20260503182530 | 77 | 297 | 5.0 | 8.0 | 0.00 | 0.00 | 0.00 | 26 | |
| 20260503181539 | 77 | 269 | 5.0 | 8.0 | 0.00 | 0.00 | 0.00 | 27 | |
| 20260503180545 | 78 | 292 | 5.0 | 9.0 | 0.00 | 0.00 | 0.00 | 26 | |
| 20260503175531 | 77 | 9 | 4.0 | 6.0 | 0.00 | 0.00 | 0.00 | 28 | |
| 20260503174519 | 78 | 304 | 4.0 | 10.0 | 0.00 | 0.00 | 0.00 | 28 | |
| 20260503173525 | 78 | 307 | 4.0 | 6.0 | 0.00 | 0.00 | 0.00 | 29 | |
| 20260503172530 | 76 | 340 | 4.0 | 8.0 | 0.00 | 0.00 | 0.00 | 30 | |
| 20260503171518 | 75 | 307 | 4.0 | 8.0 | 0.00 | 0.00 | 0.00 | 33 | |
| 20260503170544 | 75 | 333 | 4.0 | 6.0 | 0.00 | 0.00 | 0.00 | 32 | |
| 20260503150524 | 67 | 248 | 3.0 | 6.0 | 0.00 | 0.00 | 0.00 | 41 | |
| 20260503130523 | 54 | 213 | 4.0 | 7.0 | 0.00 | 0.00 | 0.00 | 53 | |
| 20260503110542 | 51 | 143 | 3.0 | 5.0 | 0.00 | 0.00 | 0.00 | 54 |